Location: Passo di Treia
(43.2833°N, 13.3333°E)
Time: 06:29:03
(UTC+00:00)

COBE Rocket - Pass Details

Date: 09 December 2019
Orbit: 680 x 782 km, 97.1° (Epoch: 17 January)

Event Time Altitude Azimuth Distance (km) Brightness Sun altitude
Rises 16:49:01 0° 8° (N) 3,050 6.8 -13.7°
Reaches altitude 10° 16:51:17 10° 6° (N) 2,131 6.1 -14.1°
Maximum altitude 16:55:53 66° 285° (WNW) 749 4.1 -14.9°
Drops below altitude 10° 17:00:31 10° 203° (SSW) 2,140 6.9 -15.7°
Sets 17:02:47 0° 201° (SSW) 3,064 7.7 -16.1°
